Location: Forest
(37.3641°N, 79.2902°W)
Time: 11:41:44
(UTC+00:00)

Envisat - Visible Passes

Search period start: 11 October 2024 00:00
Search period end: 21 October 2024 00:00
Orbit: 762 x 764 km, 98.3° (Epoch: 10 October)

Date Brightness Start Highest point End Pass type
(mag) Time Alt. Az. Time Alt. Az. Time Alt. Az.
11 Oct 5.8 07:48:29 10° NNE 07:48:52 12° NNE 07:48:52 12° NNE visible
11 Oct 5.0 09:27:57 10° NNW 09:29:00 14° NNW 09:29:00 14° NNW visible
12 Oct 5.1 08:49:44 10° N 08:50:56 17° N 08:50:56 17° N visible
13 Oct 5.5 08:12:11 10° NNE 08:12:52 14° NNE 08:12:52 14° NNE visible
14 Oct 5.1 09:14:05 10° N 09:14:56 14° NNW 09:14:56 14° NNW visible
15 Oct 5.4 08:36:08 10° N 08:36:51 14° N 08:36:51 14° N visible
16 Oct 5.9 07:58:46 10° NNE 07:58:47 10° NNE 07:58:47 10° NNE visible
16 Oct 5.3 09:38:48 10° NNW 09:38:55 10° NNW 09:38:55 10° NNW visible
17 Oct 5.3 09:00:19 10° N 09:00:50 13° N 09:00:50 13° N visible
18 Oct 5.7 08:22:34 10° NNE 08:22:46 11° NNE 08:22:46 11° NNE visible
19 Oct 5.4 09:24:47 10° NNW 09:24:48 10° NNW 09:24:48 10° NNW visible
20 Oct 5.6 08:46:36 10° N 08:46:43 11° N 08:46:43 11° N visible
